Volver al catálogo

STARLINK-32097

ActivoComunicacionesVLEO
NORAD 60351·PAYLOAD·🇺🇸 United States

Lanzado Aug 2, 2024 desde Cape Canaveral Space Force Station

Loading…

Próximos Pases (próximas 24 horas)

TLE

ActualizadoSource: CelesTrak SupGP

Época: Sep 14, 2026, 22:32 UTC

1 60351C 24136Y   26257.93937500  .00055748  00000+0  16475-2 0  2579
2 60351  53.1568 272.0291 0001164  91.6281 288.7454 15.34355077    16

Sigue STARLINK-32097 en tiempo real con AllMySat

Download on the App Store